GIA009 WIII-WIDD

Flight info

Callsign GIA009
Flight time 1h 13m
Altitude 34000
Route DOLTA A585 PLB T25 IGUTU
Aircraft B738/M-SDE2E3FGHIRWXY/LB1

Departure

Time 2026-05-05 13:04
Airport Soekarno-Hatta International Airport (WIII)

Arrival

Time 2026-05-05 14:17
Airport Hang Nadim International Airport (WIDD)
Time Latitude Longitude Altitude Speed Heading
2026-05-05 12:57 -6.11594 106.66588 36 ft 0 kts 248°
2026-05-05 12:58 -6.11599 106.66575 36 ft 5 kts 248°
2026-05-05 12:58 -6.11619 106.66524 37 ft 10 kts 248°
2026-05-05 12:58 -6.11641 106.66440 37 ft 14 kts 277°
2026-05-05 12:59 -6.11554 106.66378 37 ft 18 kts 341°
2026-05-05 12:59 -6.11433 106.66329 37 ft 20 kts 339°
2026-05-05 12:59 -6.11360 106.66234 38 ft 21 kts 255°
2026-05-05 13:00 -6.11497 106.65885 37 ft 32 kts 249°
2026-05-05 13:00 -6.11585 106.65667 36 ft 36 kts 249°
2026-05-05 13:01 -6.11896 106.64885 38 ft 42 kts 248°
2026-05-05 13:01 -6.11932 106.64795 37 ft 41 kts 248°
2026-05-05 13:01 -6.12068 106.64456 38 ft 37 kts 248°
2026-05-05 13:01 -6.12190 106.64150 38 ft 34 kts 248°
2026-05-05 13:02 -6.12252 106.63995 37 ft 15 kts 251°
2026-05-05 13:02 -6.12224 106.63903 39 ft 15 kts 324°
2026-05-05 13:02 -6.12142 106.63905 41 ft 6 kts 23°
2026-05-05 13:02 -6.12100 106.63905 40 ft 5 kts
2026-05-05 13:03 -6.12091 106.63912 40 ft 1 kts 61°
2026-05-05 13:03 -6.12078 106.63936 40 ft 23 kts 66°
2026-05-05 13:03 -6.11906 106.64371 39 ft 111 kts 68°
2026-05-05 13:03 -6.11526 106.65329 122 ft 177 kts 69°
2026-05-05 13:04 -6.10989 106.66541 816 ft 198 kts 65°
2026-05-05 13:04 -6.10278 106.67773 1536 ft 219 kts 46°
2026-05-05 13:04 -6.08934 106.68701 1844 ft 250 kts 32°
2026-05-05 13:04 -6.07409 106.69617 2424 ft 258 kts 33°
2026-05-05 13:05 -6.05862 106.70583 3118 ft 265 kts 34°
2026-05-05 13:05 -6.04242 106.71627 3495 ft 292 kts 34°
2026-05-05 13:05 -6.02440 106.72700 3838 ft 317 kts 23°
2026-05-05 13:05 -6.00229 106.72968 4603 ft 329 kts 354°
2026-05-05 13:06 -5.98041 106.72244 5425 ft 336 kts 332°
2026-05-05 13:06 -5.96157 106.70829 6261 ft 341 kts 320°
2026-05-05 13:06 -5.94392 106.69207 6990 ft 346 kts 317°
2026-05-05 13:06 -5.92640 106.67526 7729 ft 351 kts 317°
2026-05-05 13:07 -5.90873 106.65819 8480 ft 354 kts 317°
2026-05-05 13:07 -5.89080 106.64095 9163 ft 361 kts 317°
2026-05-05 13:07 -5.87216 106.62317 9489 ft 377 kts 317°
2026-05-05 13:07 -5.85289 106.60492 10009 ft 384 kts 317°
2026-05-05 13:08 -5.83337 106.58651 10635 ft 387 kts 318°
2026-05-05 13:08 -5.81366 106.56799 11266 ft 389 kts 318°
2026-05-05 13:08 -5.79382 106.54938 11858 ft 392 kts 318°
2026-05-05 13:08 -5.77377 106.53059 12445 ft 396 kts 318°
2026-05-05 13:09 -5.75355 106.51166 13035 ft 399 kts 318°
2026-05-05 13:09 -5.73320 106.49261 13605 ft 402 kts 318°
2026-05-05 13:09 -5.71264 106.47337 14110 ft 405 kts 318°
2026-05-05 13:09 -5.69193 106.45399 14585 ft 408 kts 318°
2026-05-05 13:10 -5.67137 106.43475 15050 ft 411 kts 318°
2026-05-05 13:10 -5.65031 106.41504 15514 ft 414 kts 318°
2026-05-05 13:10 -5.62915 106.39524 15989 ft 417 kts 318°
2026-05-05 13:10 -5.60793 106.37539 16567 ft 416 kts 318°
2026-05-05 13:11 -5.58681 106.35562 17127 ft 415 kts 318°
2026-05-05 13:11 -5.56565 106.33584 17701 ft 415 kts 318°
2026-05-05 13:11 -5.54458 106.31612 18264 ft 414 kts 318°
2026-05-05 13:11 -5.52350 106.29641 18765 ft 413 kts 318°
2026-05-05 13:12 -5.50247 106.27674 19281 ft 413 kts 318°
2026-05-05 13:12 -5.48151 106.25715 19798 ft 412 kts 318°
2026-05-05 13:12 -5.46056 106.23757 20328 ft 411 kts 318°
2026-05-05 13:12 -5.43967 106.21803 20865 ft 410 kts 318°
2026-05-05 13:13 -5.41881 106.19853 21410 ft 409 kts 318°
2026-05-05 13:13 -5.39801 106.17910 21977 ft 408 kts 318°
2026-05-05 13:13 -5.37727 106.15972 22532 ft 407 kts 318°
2026-05-05 13:13 -5.35680 106.14058 23106 ft 405 kts 318°
2026-05-05 13:14 -5.33619 106.12133 23656 ft 404 kts 319°
2026-05-05 13:14 -5.31566 106.10214 24149 ft 402 kts 319°
2026-05-05 13:14 -5.29525 106.08308 24646 ft 400 kts 319°
2026-05-05 13:14 -5.27492 106.06408 25152 ft 398 kts 319°
2026-05-05 13:15 -5.25469 106.04519 25669 ft 397 kts 318°
2026-05-05 13:15 -5.23445 106.02628 26195 ft 395 kts 319°
2026-05-05 13:15 -5.21467 106.00781 26722 ft 392 kts 318°
2026-05-05 13:15 -5.19476 105.98921 27268 ft 390 kts 319°
2026-05-05 13:16 -5.17494 105.97070 27823 ft 387 kts 318°
2026-05-05 13:16 -5.15529 105.95236 28385 ft 384 kts 318°
2026-05-05 13:16 -5.13577 105.93418 28960 ft 381 kts 320°
2026-05-05 13:16 -5.11501 105.91802 29526 ft 376 kts 330°
2026-05-05 13:17 -5.09263 105.90476 30111 ft 370 kts 332°
2026-05-05 13:17 -5.07024 105.89215 30614 ft 366 kts 332°
2026-05-05 13:17 -5.04549 105.87837 31184 ft 360 kts 332°
2026-05-05 13:17 -5.02378 105.86626 31707 ft 354 kts 332°
2026-05-05 13:18 -5.00249 105.85431 32237 ft 347 kts 332°
2026-05-05 13:18 -4.98162 105.84254 32702 ft 343 kts 332°
2026-05-05 13:18 -4.96039 105.83053 32554 ft 360 kts 332°
2026-05-05 13:18 -4.93800 105.81785 32342 ft 377 kts 332°
2026-05-05 13:19 -4.89943 105.79592 32450 ft 391 kts 332°
2026-05-05 13:19 -4.86735 105.77766 32537 ft 402 kts 332°
2026-05-05 13:19 -4.84281 105.76367 32608 ft 410 kts 332°
2026-05-05 13:20 -4.79232 105.73490 32740 ft 425 kts 332°
2026-05-05 13:20 -4.74038 105.70531 32852 ft 439 kts 332°
2026-05-05 13:21 -4.68648 105.67461 32960 ft 452 kts 332°
2026-05-05 13:21 -4.63125 105.64315 33179 ft 460 kts 332°
2026-05-05 13:22 -4.60340 105.62729 33445 ft 460 kts 332°
2026-05-05 13:22 -4.57564 105.61147 33823 ft 457 kts 332°
2026-05-05 13:22 -4.52007 105.57984 33885 ft 461 kts 332°
2026-05-05 13:23 -4.41257 105.51866 33889 ft 454 kts 332°
2026-05-05 13:24 -4.35756 105.48736 33893 ft 455 kts 332°
2026-05-05 13:24 -4.30285 105.45625 33890 ft 455 kts 332°
2026-05-05 13:25 -4.24774 105.42490 33891 ft 456 kts 332°
2026-05-05 13:25 -4.19257 105.39352 33895 ft 456 kts 332°
2026-05-05 13:26 -4.13736 105.36214 33893 ft 456 kts 332°
2026-05-05 13:26 -4.08197 105.33065 33889 ft 457 kts 332°
2026-05-05 13:27 -4.02699 105.29939 33892 ft 457 kts 332°
2026-05-05 13:27 -3.97135 105.26776 33894 ft 457 kts 332°
2026-05-05 13:28 -3.91600 105.23632 33894 ft 457 kts 332°
2026-05-05 13:28 -3.86090 105.20523 33892 ft 458 kts 332°
2026-05-05 13:29 -3.81464 105.17923 33892 ft 458 kts 332°
2026-05-05 13:29 -3.74969 105.14271 33893 ft 458 kts 332°
2026-05-05 13:30 -3.69407 105.11141 33896 ft 458 kts 332°
2026-05-05 13:30 -3.63589 105.08585 33893 ft 459 kts 348°
2026-05-05 13:31 -3.57270 105.07371 33898 ft 466 kts 351°
2026-05-05 13:31 -3.50828 105.06229 33898 ft 472 kts 351°
2026-05-05 13:32 -3.44328 105.05036 33899 ft 477 kts 351°
2026-05-05 13:32 -3.37779 105.03800 33894 ft 480 kts 350°
2026-05-05 13:33 -3.31253 105.02558 33893 ft 481 kts 350°
2026-05-05 13:33 -3.24667 105.01305 33894 ft 481 kts 350°
2026-05-05 13:34 -3.18077 105.00052 33891 ft 481 kts 350°
2026-05-05 13:35 -3.05853 104.97732 33893 ft 481 kts 350°
2026-05-05 13:35 -2.99276 104.96484 33894 ft 481 kts 350°
2026-05-05 13:36 -2.85820 104.93931 33893 ft 480 kts 350°
2026-05-05 13:37 -2.79458 104.92723 33890 ft 480 kts 350°
2026-05-05 13:37 -2.72891 104.91478 33894 ft 480 kts 350°
2026-05-05 13:38 -2.66330 104.90233 33889 ft 480 kts 350°
2026-05-05 13:38 -2.59806 104.88996 33895 ft 480 kts 350°
2026-05-05 13:39 -2.53238 104.87750 33894 ft 480 kts 350°
2026-05-05 13:39 -2.46676 104.86506 33895 ft 480 kts 350°
2026-05-05 13:40 -2.40105 104.85260 33892 ft 480 kts 350°
2026-05-05 13:40 -2.33545 104.84017 33896 ft 480 kts 350°
2026-05-05 13:41 -2.26984 104.82773 33891 ft 480 kts 350°
2026-05-05 13:41 -2.20417 104.81528 33896 ft 480 kts 350°
2026-05-05 13:42 -2.13886 104.80290 33890 ft 480 kts 350°
2026-05-05 13:42 -2.07314 104.79045 33891 ft 480 kts 350°
2026-05-05 13:43 -2.00754 104.77802 33890 ft 480 kts 350°
2026-05-05 13:43 -1.94189 104.76558 33890 ft 480 kts 350°
2026-05-05 13:44 -1.87623 104.75314 33891 ft 480 kts 350°
2026-05-05 13:44 -1.81043 104.74067 33893 ft 481 kts 350°
2026-05-05 13:45 -1.74515 104.72831 33889 ft 481 kts 350°
2026-05-05 13:45 -1.67935 104.71584 33894 ft 481 kts 350°
2026-05-05 13:46 -1.61345 104.70336 33894 ft 482 kts 350°
2026-05-05 13:46 -1.54754 104.69088 33893 ft 482 kts 350°
2026-05-05 13:47 -1.48167 104.67840 33893 ft 482 kts 350°
2026-05-05 13:47 -1.44904 104.67222 33894 ft 482 kts 350°
2026-05-05 13:48 -1.39578 104.66213 33893 ft 482 kts 350°
2026-05-05 13:48 -1.32976 104.64963 33896 ft 482 kts 350°
2026-05-05 13:49 -1.26599 104.63756 33896 ft 482 kts 350°
2026-05-05 13:49 -1.20005 104.62507 33897 ft 482 kts 350°
2026-05-05 13:50 -1.13403 104.61257 33898 ft 482 kts 350°
2026-05-05 13:50 -1.06805 104.60007 33899 ft 482 kts 350°
2026-05-05 13:51 -0.93367 104.55961 33893 ft 484 kts 341°
2026-05-05 13:52 -0.87014 104.53722 33900 ft 484 kts 342°
2026-05-05 13:52 -0.81724 104.51893 33900 ft 484 kts 342°
2026-05-05 13:53 -0.75354 104.49709 33900 ft 484 kts 342°
2026-05-05 13:53 -0.68041 104.47202 33878 ft 458 kts 342°
2026-05-05 13:54 -0.65110 104.46196 33856 ft 444 kts 342°
2026-05-05 13:54 -0.62232 104.45209 33804 ft 431 kts 342°
2026-05-05 13:54 -0.59407 104.44240 33262 ft 430 kts 342°
2026-05-05 13:54 -0.56577 104.43270 32785 ft 429 kts 342°
2026-05-05 13:55 -0.53752 104.42302 32302 ft 428 kts 342°
2026-05-05 13:55 -0.50942 104.41339 31826 ft 426 kts 342°
2026-05-05 13:55 -0.48133 104.40377 31359 ft 425 kts 342°
2026-05-05 13:55 -0.45334 104.39419 30898 ft 424 kts 342°
2026-05-05 13:56 -0.42574 104.38474 30448 ft 423 kts 342°
2026-05-05 13:56 -0.39791 104.37522 30003 ft 422 kts 342°
2026-05-05 13:56 -0.37014 104.36571 29490 ft 421 kts 342°
2026-05-05 13:56 -0.34259 104.35627 28960 ft 415 kts 342°
2026-05-05 13:57 -0.31551 104.34699 28434 ft 406 kts 342°
2026-05-05 13:57 -0.28908 104.33794 27927 ft 398 kts 342°
2026-05-05 13:57 -0.26304 104.32902 27430 ft 391 kts 342°
2026-05-05 13:57 -0.23754 104.32029 26943 ft 384 kts 343°
2026-05-05 13:58 -0.22085 104.31475 26625 ft 379 kts 345°
2026-05-05 13:58 -0.19565 104.30758 26152 ft 373 kts 347°
2026-05-05 13:58 -0.17076 104.30122 25688 ft 367 kts 348°
2026-05-05 13:58 -0.13791 104.29314 25079 ft 360 kts 348°
2026-05-05 13:59 -0.08936 104.28113 24203 ft 361 kts 348°
2026-05-05 13:59 -0.07316 104.27707 23935 ft 362 kts 348°
2026-05-05 14:00 -0.02417 104.26469 23013 ft 365 kts 347°
2026-05-05 14:00 0.00048 104.25843 22505 ft 366 kts 347°
2026-05-05 14:00 0.02524 104.25211 21990 ft 368 kts 347°
2026-05-05 14:00 0.05006 104.24578 21477 ft 369 kts 347°
2026-05-05 14:01 0.07493 104.23943 20979 ft 370 kts 347°
2026-05-05 14:01 0.09997 104.23304 20481 ft 371 kts 347°
2026-05-05 14:01 0.12489 104.22667 19985 ft 367 kts 347°
2026-05-05 14:01 0.13288 104.22462 19828 ft 366 kts 347°
2026-05-05 14:02 0.20343 104.20659 18433 ft 348 kts 347°
2026-05-05 14:02 0.22670 104.20064 17937 ft 343 kts 347°
2026-05-05 14:02 0.24968 104.19477 17405 ft 338 kts 347°
2026-05-05 14:03 0.27234 104.18898 16877 ft 334 kts 347°
2026-05-05 14:03 0.29477 104.18325 16370 ft 330 kts 347°
2026-05-05 14:03 0.31694 104.17759 15861 ft 327 kts 347°
2026-05-05 14:03 0.33884 104.17200 15367 ft 323 kts 347°
2026-05-05 14:04 0.36025 104.16653 14884 ft 320 kts 347°
2026-05-05 14:04 0.38172 104.16105 14406 ft 317 kts 347°
2026-05-05 14:04 0.40301 104.15562 13929 ft 314 kts 347°
2026-05-05 14:04 0.42409 104.15023 13439 ft 312 kts 347°
2026-05-05 14:05 0.44494 104.14491 12989 ft 307 kts 346°
2026-05-05 14:05 0.46540 104.13968 12534 ft 303 kts 346°
2026-05-05 14:05 0.50523 104.12951 11678 ft 295 kts 346°
2026-05-05 14:06 0.52501 104.12446 11233 ft 292 kts 346°
2026-05-05 14:06 0.54461 104.11945 10827 ft 289 kts 346°
2026-05-05 14:06 0.56399 104.11450 10406 ft 288 kts 346°
2026-05-05 14:06 0.58350 104.10952 10008 ft 291 kts 346°
2026-05-05 14:07 0.60326 104.10448 9620 ft 291 kts 345°
2026-05-05 14:07 0.62267 104.09952 9210 ft 286 kts 345°
2026-05-05 14:07 0.64179 104.09463 8809 ft 281 kts 345°
2026-05-05 14:07 0.66063 104.08982 8415 ft 277 kts 345°
2026-05-05 14:08 0.67916 104.08508 8068 ft 272 kts 345°
2026-05-05 14:08 0.69735 104.08044 7701 ft 268 kts 345°
2026-05-05 14:08 0.71532 104.07585 7355 ft 267 kts 345°
2026-05-05 14:08 0.73330 104.07125 7006 ft 265 kts 345°
2026-05-05 14:09 0.75106 104.06672 6671 ft 261 kts 345°
2026-05-05 14:09 0.76849 104.06226 6360 ft 255 kts 345°
2026-05-05 14:09 0.78510 104.05802 6036 ft 245 kts 345°
2026-05-05 14:09 0.80144 104.05385 5684 ft 240 kts 345°
2026-05-05 14:10 0.81753 104.04974 5340 ft 238 kts 345°
2026-05-05 14:10 0.83348 104.04566 5012 ft 236 kts 345°
2026-05-05 14:10 0.84932 104.04161 4670 ft 234 kts 345°
2026-05-05 14:11 0.89131 104.03088 3742 ft 229 kts 345°
2026-05-05 14:11 0.90671 104.02694 3410 ft 228 kts 345°
2026-05-05 14:11 0.92204 104.02303 3075 ft 227 kts 345°
2026-05-05 14:12 0.93733 104.01912 2747 ft 225 kts 345°
2026-05-05 14:12 0.95230 104.01530 2527 ft 221 kts 345°
2026-05-05 14:12 0.96721 104.01149 2308 ft 221 kts 345°
2026-05-05 14:12 0.98226 104.00815 2082 ft 222 kts 357°
2026-05-05 14:13 0.99655 104.01222 1885 ft 211 kts 35°
2026-05-05 14:13 1.00813 104.02041 1818 ft 198 kts 35°
2026-05-05 14:13 1.01879 104.02832 1792 ft 181 kts 40°
2026-05-05 14:13 1.02799 104.03616 1792 ft 172 kts 42°
2026-05-05 14:14 1.03672 104.04388 1792 ft 163 kts 42°
2026-05-05 14:14 1.04522 104.05143 1668 ft 165 kts 42°
2026-05-05 14:14 1.05354 104.05883 1468 ft 161 kts 42°
2026-05-05 14:14 1.06182 104.06618 1270 ft 157 kts 42°
2026-05-05 14:15 1.06995 104.07341 1065 ft 157 kts 42°
2026-05-05 14:15 1.07811 104.08065 886 ft 157 kts 42°
2026-05-05 14:15 1.08624 104.08788 700 ft 156 kts 42°
2026-05-05 14:15 1.09433 104.09506 509 ft 154 kts 41°
2026-05-05 14:16 1.10188 104.10189 327 ft 143 kts 41°
2026-05-05 14:16 1.10915 104.10840 158 ft 137 kts 41°
2026-05-05 14:16 1.11577 104.11421 134 ft 112 kts 41°
2026-05-05 14:16 1.12066 104.11853 135 ft 77 kts 41°
2026-05-05 14:17 1.12365 104.12117 136 ft 21 kts 41°
2026-05-05 14:17 1.12465 104.12183 136 ft 17 kts 27°
2026-05-05 14:17 1.12573 104.12221 136 ft 16 kts 20°
2026-05-05 14:17 1.12622 104.12233 135 ft 4 kts
2026-05-05 14:18 1.12651 104.12237 135 ft 4 kts
2026-05-05 14:18 1.12691 104.12238 135 ft 7 kts 340°
2026-05-05 14:18 1.12697 104.12193 136 ft 8 kts 241°
2026-05-05 14:18 1.12652 104.12149 136 ft 10 kts 221°
2026-05-05 14:19 1.12593 104.12097 136 ft 13 kts 222°
2026-05-05 14:19 1.12521 104.12033 136 ft 15 kts 221°
2026-05-05 14:19 1.12505 104.12019 136 ft 0 kts 221°
2026-05-05 14:20 1.12487 104.12003 136 ft 7 kts 220°
2026-05-05 14:20 1.12443 104.11966 136 ft 9 kts 220°
2026-05-05 14:20 1.12388 104.11918 137 ft 11 kts 220°
2026-05-05 14:20 1.12336 104.11867 137 ft 10 kts 238°
2026-05-05 14:21 1.12330 104.11827 137 ft 1 kts 278°
2026-05-05 14:21 1.12337 104.11816 137 ft 1 kts 303°
2026-05-05 14:21 1.12343 104.11801 136 ft 4 kts 281°
2026-05-05 14:21 1.12330 104.11769 136 ft 6 kts 242°
2026-05-05 14:22 1.12331 104.11732 136 ft 5 kts 294°
2026-05-05 14:22 1.12338 104.11721 136 ft 3 kts 306°
2026-05-05 14:22 1.12355 104.11701 136 ft 4 kts 311°
2026-05-05 14:22 1.12364 104.11691 136 ft 2 kts 311°
2026-05-05 14:23 1.12366 104.11689 136 ft 0 kts 311°